Weather History for PAFA - July, 2014

Change the Weather History Date:

Monday, July 21, 2014

  Actual Average Record
Temperature  
Mean Temperature 51 °F 62 °F  
Max Temperature 60 °F 72 °F 88 °F (1915)
Min Temperature 42 °F 52 °F 35 °F (1928)
Degree Days  
Heating Degree Days 14 4  
Month to date heating degree days 71 65  
Since 1 June heating degree days 263 225  
Since 1 July heating degree days 71 65  
Cooling Degree Days 0 1  
Month to date cooling degree days 19 25  
Year to date cooling degree days 20 49  
Since 1 June cooling degree days 20 48  
Growing Degree Days 1 (Base 50)    
Moisture  
Dew Point 45 °F    
Average Humidity 74    
Maximum Humidity 89    
Minimum Humidity 52    
Precipitation  
Precipitation 0.01 in 0.08 in 1.35 in (2010)
Month to date precipitation 5.42 1.43  
Year to date precipitation 10.07 4.96  
Snow  
Snow 0.00 in 0.00 in 0.00 in (2002)
Month to date snowfall 0.0 0.0  
Since 1 June snowfall 0.0 0.0  
Since 1 July snowfall 0.0 0.0  
Snow Depth 0.00 in    
Sea Level Pressure  
Sea Level Pressure 30.04 in    
Wind  
Wind Speed 1 mph (NNE)    
Max Wind Speed 6 mph    
Max Gust Speed -    
Visibility 10 miles    
Events      
T = Trace of Precipitation, MM = Missing Value Source: NWS Daily Summary

Daily Weather History Graph

Daily Weather History Graph

Search for Another Location

Airport or City:

Trip Planner

Search our weather history database for the weather conditions in past years. The results will help you decide how hot, cold, wet, or windy it might be!

Date:

Astronomy

Jul. 21, 2014 Rise Set
Actual Time 4:14 AM AKDT 11:38 PM AKDT
Civil Twilight 2:30 AM AKDT 1:25 AM AKDT
Nautical Twilight Sun does not set Sun does not set
Astronomical Twilight Sun does not set Sun does not set
Moon 12:55 AM AKDT (7/21) 7:01 PM AKDT (7/21)
Length of Visible Light 22h 55m
Length of Day
19h 24m
Waning Crescent, 23% of the Moon is Illuminated
Jul 21
Waning Crescent
Jul 26
New
Aug 3
First Quarter
Aug 10
Full
Aug 17
Last Quarter

Hourly Weather History & Observations

Time (AKDT) Temp. Windchill Dew Point Humidity Pressure Visibility Wind Dir Wind Speed Gust Speed Precip Events Conditions
12:53 AM 48.9 °F - 42.1 °F 77% 30.04 in 10.0 mi Calm Calm - N/A   Mostly Cloudy
1:53 AM 48.0 °F - 42.1 °F 80% 30.04 in 10.0 mi Calm Calm - N/A   Mostly Cloudy
2:53 AM 45.0 °F - 39.9 °F 82% 30.06 in 10.0 mi Calm Calm - N/A   Mostly Cloudy
3:53 AM 42.1 °F - 39.0 °F 89% 30.06 in 10.0 mi Calm Calm - N/A   Mostly Cloudy
4:53 AM 45.0 °F - 41.0 °F 86% 30.06 in 10.0 mi Calm Calm - N/A   Mostly Cloudy
5:53 AM 46.0 °F 44.8 °F 41.0 °F 83% 30.07 in 10.0 mi NNE 3.5 mph - N/A   Mostly Cloudy
6:53 AM 46.9 °F - 42.1 °F 83% 30.07 in 10.0 mi Calm Calm - N/A   Mostly Cloudy
7:53 AM 48.0 °F - 43.0 °F 83% 30.07 in 10.0 mi Calm Calm - N/A   Mostly Cloudy
8:53 AM 50.0 °F - 44.1 °F 80% 30.07 in 10.0 mi Calm Calm - N/A   Mostly Cloudy
9:53 AM 51.1 °F - 45.0 °F 80% 30.07 in 10.0 mi Calm Calm - N/A   Overcast
10:53 AM 53.1 °F - 45.0 °F 74% 30.07 in 10.0 mi Calm Calm - N/A   Overcast
11:53 AM 55.0 °F - 45.0 °F 69% 30.07 in 10.0 mi WSW 3.5 mph - N/A   Overcast
12:53 PM 55.9 °F - 45.0 °F 67% 30.07 in 10.0 mi Calm Calm - N/A   Overcast
1:53 PM 57.9 °F - 46.0 °F 65% 30.06 in 10.0 mi Calm Calm - N/A   Overcast
2:53 PM 59.0 °F - 44.1 °F 58% 30.06 in 10.0 mi Calm Calm - N/A   Overcast
3:53 PM 59.0 °F - 46.0 °F 62% 30.05 in 10.0 mi NE 3.5 mph - N/A   Overcast
4:53 PM 59.0 °F - 46.9 °F 64% 30.04 in 10.0 mi Calm Calm - 0.01 in   Overcast
5:53 PM 59.0 °F - 46.0 °F 62% 30.02 in 10.0 mi East 3.5 mph - 0.00 in   Overcast
6:53 PM 60.1 °F - 46.9 °F 62% 30.02 in 10.0 mi NNE 3.5 mph - N/A   Overcast
7:53 PM 59.0 °F - 48.0 °F 67% 30.01 in 10.0 mi NE 4.6 mph - N/A   Overcast
8:53 PM 57.0 °F - 50.0 °F 77% 30.00 in 10.0 mi NW 4.6 mph - 0.00 in   Overcast
9:53 PM 57.0 °F - 48.9 °F 74% 29.99 in 10.0 mi North 3.5 mph - 0.00 in   Overcast
10:53 PM 55.0 °F - 48.9 °F 80% 29.99 in 10.0 mi North 3.5 mph - N/A   Overcast
11:53 PM 54.0 °F - 48.9 °F 83% 29.98 in 10.0 mi NNE 5.8 mph - N/A   Mostly Cloudy